Find Mozi ji yanzheng xitong

NORAD ID: 52085 Int'l Des: 2022-027 Owner: CNSA Country: CN operational
LEO

Current View

Loading 3D Globe...

About Mozi ji yanzheng xitong

Description loading...

Upcoming Passes

Passes for default location (London). Set your location on the main map for personalized predictions.

Altitude History

Loading altitude history...

Two-Line Element Set

1 52085U 22027B 26145.31319863 -.00000066 00000-0 30012-4 0 9998
2 52085 63.3917 119.8178 0230547 22.6752 338.4273 13.65477701208912
Epoch: May 25, 2026 • Age: 24 hours

Current Status

Altitude 1179.1 km
Velocity 7.19 km/s
Sub-Earth Point -45.42°S, 28.88°W
Launch Date Mar 17, 2022
Age 4.1 years
Type other

Technical Details

Classification Payload
Mass 10.00 kg
Dry Mass 10.00 kg
Total Mass 10.00 kg
Length 0.20 m
Diameter 0.20 m
Span 0.20 m
Shape Box
Manufacturer SAST
Phase Status Attached in Orbit
Owner/State CNSA/CN

Most Searched